Regional Weather Roundup
Issued by NWS Cleveland, OH

Home | Current Version | Previous Version | Graphics & Text | Print | Product List | Glossary On
Versions: 1 2 3 4 5 6 7 8 9 10 11 12 13 14 15 16 17 18 19 20 21 22 23 24 25 26 27 28 29 30 31 32 33 34 35 36 37 38 39 40 41 42 43 44 45 46 47 48 49 50
690
ASUS41 KCLE 200310
RWRCLE
OHIO REGIONAL WEATHER ROUNDUP
NATIONAL WEATHER SERVICE WILMINGTON, OH
1000 PM EST SUN FEB 19 2017

NOTE: "FAIR" INDICATES FEW OR NO CLOUDS BELOW 12,000 FEET WITH NO
SIGNIFICANT WEATHER AND/OR OBSTRUCTIONS TO VISIBILITY.

OHZ001>008-015>018-024>027-034-035-043-044-200400-
   NORTHWEST OHIO

CITY           SKY/WX    TMP DP  RH WIND       PRES   REMARKS
DEFIANCE       FAIR      41  31  67 CALM      30.13R
FINDLAY        FAIR      47  33  58 SW3       30.12R
TOLEDO EXPRESS FAIR      45  32  60 CALM      30.12R
TOLEDO EXEC    FAIR      43  33  68 CALM      30.13R
LIMA           FAIR      44  35  70 CALM      30.13R
$$

OHZ009>014-019>023-028>033-038-089-200400-
   NORTHEAST OHIO

CITY           SKY/WX    TMP DP  RH WIND       PRES   REMARKS
CLE-HOPKINS    FAIR      46  34  62 CALM      30.16R
CLE-LAKEFRONT  FAIR      47  34  60 N5        30.13R
CUY CO. ARPT   CLEAR     43  36  75 CALM      30.14R
LORAIN-ELYRIA  FAIR      43  33  68 NE5       30.13R
ASHTABULA      FAIR      39  33  79 CALM      30.15R
AKRON-CANTON   FAIR      50  33  52 W5        30.13R
WOOSTER        FAIR      38  32  79 CALM      30.14R
MANSFIELD      FAIR      43  33  68 S6        30.13R
YOUNGSTOWN     FAIR      47  31  53 N3        30.13R
$$

OHZ042-051>053-060>062-070>072-077>081-200400-
  SOUTHWEST OHIO

CITY           SKY/WX    TMP DP  RH WIND       PRES   REMARKS
CINC-COVINGTON FAIR      46  45  96 S5        30.16R FOG
CINC-LUNKEN    FAIR      42  41  96 CALM      30.17R FOG
HAMILTON       FAIR      39  37  92 CALM      30.17R FOG
DAYTON         FAIR      47  43  86 S3        30.15R
WRIGHT-PAT AFB CLEAR     43  43  99 CALM      30.15R
DAYTON GENERAL FAIR      46  43  89 S6        30.14R
WILMINGTON     FAIR      44  42  93 S3        30.15R FOG
$$

OHZ036-037-039>041-045>050-054>059-063>069-073>076-082>088-200400-
  CENTRAL AND SOUTHEAST OHIO

CITY           SKY/WX    TMP DP  RH WIND       PRES   REMARKS
COLUMBUS       FAIR      48  43  82 S3        30.15R HAZE
OSU AIRPORT    FAIR      45  43  93 SE3       30.14R
BOLTON FIELD   FAIR      40  39  96 S3        30.15F
RICKENBACK AFB FAIR      44  43  97 S3        30.15S FOG
NEWARK         FOG       39  37  92 CALM      30.15S VSB 1
MARION         FAIR      43  37  79 S6        30.14R
LANCASTER      FAIR      37  36  96 SE5       30.16S FOG
ZANESVILLE     FAIR      45  42  89 CALM      30.16R FOG
NEW PHILLY     FAIR      48  43  82 S3        30.16R
$$




USA.gov is the U.S. government's official web portal to all federal, state and local government web resources and services.